Regional Weather Roundup
Issued by NWS Wakefield, VA

Home | Current Version | Previous Version | Text Only | Print | Product List | Glossary Off
Versions: 1 2 3 4 5 6 7 8 9 10 11 12 13 14 15 16 17 18 19 20 21 22 23 24 25 26 27

000
ASUS41 KAKQ 270114
RWRAKQ

REGIONAL WEATHER ROUNDUP
NATIONAL WEATHER SERVICE WAKEFIELD VA
800 PM EST SUN FEB 26 2017

Note: "fair" indicates few or no clouds below 12,000 feet with no
significant weather and/or obstructions to visibility. * = Denotes
station may not report precipitation (e.g., rain,snow,etc.),
thunder or fog.

VAZ042-051-052>054-056-270200-
NORTHERN VIRGINIA

CITY           SKY/WX    TMP DP  RH WIND       PRES   REMARKS
WASH NATIONAL  CLEAR     44  21  40 NE6       30.26R
DULLES         CLEAR     37  20  50 E3        30.25R
FORT BELVOIR   CLEAR     38  24  55 CALM      30.25R
QUANTICO       CLEAR     42  25  50 N6        30.27R
FREDERICKSBRG* CLEAR     40  25  54 CALM      30.24R
STAFFORD*      CLEAR     35  23  61 CALM      30.29R
WARRENTON      CLEAR     39  17  41 E5        30.24R
CULPEPER*      CLEAR     32  22  67 CALM      30.26R
MANASSAS*      CLEAR     36  24  62 CALM      30.26R
LEESBURG*      CLEAR     41  25  52 MISG      30.26R
WINCHESTER     CLEAR     32  14  47 CALM      30.23R
FRONT ROYAL*   NOT AVBL
LURAY*         CLEAR     36  16  44 CALM      30.23
$$

VAZ048-049-060>072-079>083-270200-
CENTRAL AND SOUTH CENTRAL VIRGINIA

CITY           SKY/WX    TMP DP  RH WIND       PRES   REMARKS
RICHMOND       CLEAR     39  25  57 SE5       30.25R
CHESTERFIELD*  FAIR      39  16  38 CALM      30.27R
PETERSBURG*    CLEAR     32  28  84 CALM      30.27R
HANOVER        CLEAR     35  23  61 CALM      30.26R
TAPPAHANNOCK*  CLEAR     36  17  46 CALM      30.26R
QUINTON*       NOT AVBL
CHARLOTTSVILLE CLEAR     45  10  24 NW5       30.23R
GORDONSVILLE*  CLEAR     43  16  34 N3        30.23R
ORANGE*        CLEAR     34  23  64 CALM      30.26R
LOUISA*        CLEAR     36  25  64 SW3       30.22R
BUMPASS*       FAIR      37  21  50 S3        30.23R
FARMVILLE*     CLEAR     41  21  44 CALM      30.24R
CREWE*         FAIR      36  27  71 CALM      30.25R
FORT PICKETT*  NOT AVBL
CHASE CITY*    NOT AVBL
CLARKSVILLE*   FAIR      37  28  70 S3        30.26
SOUTH HILL*    CLEAR     35  29  79 CALM      30.32R
LAWRENCEVILLE* FAIR      38  27  66 CALM      30.26R
EMPORIA*       CLEAR     32  28  86 CALM      30.29R
$$

VAZ088>098-270200-
SOUTHEAST VIRGINIA

CITY           SKY/WX    TMP DP  RH WIND       PRES   REMARKS
NORFOLK        CLEAR     43  30  60 S5        30.28R
VIRGINIA BEACH CLEAR     40  27  59 SE3       30.28R
NORFOLK NAVAL  CLEAR     41  30  65 SE3       30.29R
WEST POINT*    CLEAR     37  27  67 E5        30.29R
SALUDA*        FAIR      39  29  66 CALM      30.27
NEWPORT NEWS   CLEAR     37  31  78 E3        30.28R
LANGLEY AFB    CLEAR     41  33  71 E3        30.27R
FORT EUSTIS    CLEAR     42  30  63 E3        30.25R
WILLIAMSBURG*  CLEAR     43  30  61 CALM      30.28R
HR EXEC AP*    NOT AVBL
FRANKLIN*      CLEAR     38  28  67 CALM      30.29R
US460-WAKEFLD  CLEAR     36  28  73 CALM      30.27R
$$

VAZ020-022-025-037-045-270200-
WEST CENTRAL AND SOUTHWEST VIRGINIA

CITY           SKY/WX    TMP DP  RH WIND       PRES   REMARKS
STAUNTON*      CLEAR     35  13  39 CALM      30.24R
WAYNESBORO*    CLEAR     40   5  23 E5        30.22
HOT SPRINGS VA CLEAR     32   0  25 W9        30.15S
LYNCHBURG      CLEAR     41  12  30 CALM      30.25R
DANVILLE       CLEAR     38  24  57 CALM      30.25R
SOUTH BOSTON*  FAIR      41  18  39 CALM      30.26R
MARTINSVILLE   CLEAR     35  19  51 CALM      30.27R
ROANOKE        CLEAR     44  10  25 CALM      30.25R
BLACKSBURG     CLEAR     33  19  54 CALM      30.25R
DUBLIN*        CLEAR     39  13  34 SW5       30.24R
MARION*        CLEAR     34  20  57 CALM      30.24R
HILLSVILLE*    CLEAR     39  14  36 CALM      30.21R
RICHLANDS*     FAIR      38  15  39 CALM      30.20R
WISE*          CLEAR     37  14  38 CALM      30.21R
ABINGDON*      CLEAR     38  20  47 CALM      30.22R
$$

MDZ021>025-VAZ099-100-270200-
SOUTHERN MARYLAND AND THE DELMARVA PENINSULA

CITY           SKY/WX    TMP DP  RH WIND       PRES   REMARKS
PATUXENT RIVER CLEAR     37  30  75 CALM      30.26R
BAY BRIDGE APT CLEAR     41  25  52 CALM      30.27R
LEONARDTOWN    CLEAR     34  25  69 CALM      30.28R
DOVER          CLEAR     40  22  50 W3        30.25R
GEORGETOWN     CLEAR     34  23  64 SW3       30.27R
EASTON         CLEAR     37  21  52 CALM      30.30R
CAMBRIDGE      CLEAR     34  25  69 CALM      30.27R
SALISBURY      CLEAR     34  27  75 CALM      30.26R
OCEAN CITY     CLEAR     33  25  72 CALM      30.27R
WALLOPS ISLAND CLEAR     36  24  62 SW3       30.29R
ACCOMACK*      CLEAR     35  27  72 CALM      30.28R
$$

NCZ012>017-030>032-270200-
NORTH CENTRAL AND EASTERN NORTH CAROLINA

CITY           SKY/WX    TMP DP  RH WIND       PRES   REMARKS
ROANOKE RAPIDS FAIR      37  30  75 CALM      30.28R
RALEIGH        PTCLDY    44  22  41 CALM      30.27R
ELIZABETH CITY CLEAR     43  37  79 E9        30.29R
AHOSKIE*         N/A     38  27  65 CALM      30.29R
EDENTON*       CLEAR     44  31  59 CALM      30.29R
CURRITUCK*     CLEAR     43  35  73 CALM      30.29R
KILL DEVIL HLS NOT AVBL
MANTEO         CLEAR     43  36  77 E5        30.29R
CAPE HATTERAS  CLEAR     43  33  68 CALM      30.27R
TARBORO*       NOT AVBL
GOLDSBORO      NOT AVBL
WASHINGTON     CLEAR     45  27  49 CALM      30.29R
GREENVILLE     CLEAR     43  27  52 CALM      30.29R
NEW BERN       CLEAR     44  32  62 CALM      30.29R
WILMINGTON     PTCLDY    46  34  62 CALM      30.28R
$$

VAZ048-270200-
ELSEWHERE

CITY           SKY/WX    TMP DP  RH WIND       PRES   REMARKS
HARRISBURG PA  CLEAR     35  19  52 W3        30.23R
BALTIMORE      CLEAR     36  21  54 CALM      30.25R
ANNAPOLIS      CLEAR     41  26  55 CALM      30.26R
ANDREWS AFB    CLEAR     39  20  46 N5        30.24R
PHILADELPHIA   PTCLDY    40  16  37 NW10      30.25R
HENDERSON NC   CLEAR     38  24  56 CALM      30.27R
GREENSBORO     PTCLDY    46  18  32 CALM      30.23R
ROCKY MOUNT    CLEAR     39  32  76 CALM      30.28R
$$

VAZ100-270200-
MARINE

STATION/POSITION TIME  TEMP    WIND        PRES    WAVE   SWELL
                       AIR SEA DIR/SP/G            HT/PER HT/PER
                 (UTC) (F)     (DEG/KT/KT) (MB)    (FT/S) (FT/S)
CAPE MAY NJ      0048   43 45  300/ 12/ 15 1024.1R
LEWES DE         0048          250/  4/  7   N/A
OCEAN-CITY-INLET 0048          290/  2/  2   N/A
WACHAPREAGUE VA  0048   40 53  280/  2/  2 1025.4R
THOMAS POINT MD  0000   45 44  330/  5/  6   N/A
GOOSES REEF MD   0050   45      CALM  /  2 1025.2R
COVE POINT MD    0048   43     100/  2/  3 1025.2R
SOLOMONS ISLAND  0048           60/  3/  4   N/A
BISHOPS HEAD MD  0048   43 49   60/  4/  4 1025.0R
PINEY POINT MD   0048          190/  4/  4   N/A
POTOMAC MD       0050   44     160/  8/  8 1024.0R
CAMBRIDGE MD     0048   43 47   30/  5/  7 1024.2R
LEWISETTA VA     0048   43 50  200/  2/  3 1024.5R
RAPPAHANNOCK LGT 0048          110/  4/  5 1025.8R
YORK RVR RNG VA  0048   45     100/  8/  8 1024.6R
YORKTOWN VA      0048   45 50  130/  5/  7 1024.8R
JAMESTOWN VA     0050   45      40/  2/  4   N/A
DOMINION TERM VA 0048   47     110/  6/  9 1025.2R
KIPTOPEKE VA     0048          140/  6/  7   N/A
CHES BAY BRIDGE  0048   45 48  170/  8/  9 1025.2R
CAPE HENRY VA    0048   43     160/  6/  7   N/A
WILLOUBY STN VA  0048   45     130/  6/  7 1026.0R
S CRANEY ISL VA  0048   45     130/  6/  8 1025.0R
CAPE HENRY BUOY  0042      48                N/A     3/ 9   2/11
OFFSHORE WE BUOY 0051      48                N/A     3/10   2/11
64NM E OF VA BCH 0050   44 50   50/  4/  6 1025.5R   5/10   5/10
DUCK PIER NC     0048   45 49  110/  9/ 12 1025.0R
44100 DUCK FRF   0005      50                N/A     4/10   2/11
44056 DUCK FRF   0030      50                N/A     4/10   2/11
OREGON INLET NC  0048           60/  6/  7   N/A
HATTERAS NC      0048   53 61  250/  7/ 11 1024.6R
DIAMOND SHLS NC  0050   56 72  280/  8/ 14 1025.1R   4/ 8   5/ 8
CAPE LOOKOUT NC  0000   54     250/  5/  6 1024.0R
$$




USA.gov is the U.S. government's official web portal to all federal, state and local government web resources and services.